Time,TemperatureF,DewpointF,PressureIn,WindDirection,WindDirectionDegrees,WindSpeedMPH,WindSpeedGustMPH,Humidity,HourlyPrecipIn,Conditions,Clouds,dailyrainin,SoftwareType,DateUTC
2013-10-25 00:02:00,48.5,42.0,30.16,ESE,123,0.0,0.0,77,0.00,,,0.00,weatherlink.com 1.10,2013-10-25 04:02:00,
2013-10-25 00:17:00,48.3,41.0,30.16,ESE,123,0.0,0.0,76,0.00,,,0.00,weatherlink.com 1.10,2013-10-25 04:17:00,
2013-10-25 00:32:00,48.0,41.0,30.16,ESE,123,0.0,0.0,76,0.00,,,0.00,weatherlink.com 1.10,2013-10-25 04:32:00,
2013-10-25 00:47:00,47.7,41.0,30.16,ESE,123,0.0,0.0,77,0.00,,,0.00,weatherlink.com 1.10,2013-10-25 04:47:00,
2013-10-25 01:02:00,47.4,41.0,30.16,ESE,123,0.0,0.0,79,0.00,,,0.00,weatherlink.com 1.10,2013-10-25 05:02:00,
2013-10-25 01:17:00,47.3,41.0,30.16,ESE,123,0.0,0.0,79,0.00,,,0.00,weatherlink.com 1.10,2013-10-25 05:17:00,
2013-10-25 01:33:00,46.8,40.0,30.17,ESE,123,0.0,0.0,78,0.00,,,0.00,weatherlink.com 1.10,2013-10-25 05:33:00,
2013-10-25 01:48:00,46.5,39.0,30.17,ESE,123,0.0,0.0,76,0.00,,,0.00,weatherlink.com 1.10,2013-10-25 05:48:00,
2013-10-25 02:03:00,46.5,39.0,30.17,ESE,123,0.0,0.0,75,0.00,,,0.00,weatherlink.com 1.10,2013-10-25 06:03:00,
2013-10-25 02:18:00,46.5,39.0,30.17,ESE,123,0.0,0.0,74,0.00,,,0.00,weatherlink.com 1.10,2013-10-25 06:18:00,
2013-10-25 02:33:00,46.5,39.0,30.18,ESE,123,0.0,0.0,74,0.00,,,0.00,weatherlink.com 1.10,2013-10-25 06:33:00,
2013-10-25 02:48:00,46.7,37.0,30.18,ENE,77,0.0,2.0,69,0.00,,,0.00,weatherlink.com 1.10,2013-10-25 06:48:00,
2013-10-25 03:03:00,46.5,36.0,30.18,East,84,0.0,1.0,68,0.00,,,0.00,weatherlink.com 1.10,2013-10-25 07:03:00,
2013-10-25 03:18:00,46.4,36.0,30.19,WSW,246,2.0,2.0,66,0.00,,,0.00,weatherlink.com 1.10,2013-10-25 07:18:00,
2013-10-25 03:33:00,46.1,36.0,30.19,SE,128,0.0,1.0,67,0.00,,,0.00,weatherlink.com 1.10,2013-10-25 07:33:00,
2013-10-25 03:48:00,46.0,36.0,30.20,SE,128,0.0,1.0,67,0.00,,,0.00,weatherlink.com 1.10,2013-10-25 07:48:00,
2013-10-25 04:03:00,45.7,35.0,30.20,SE,128,0.0,0.0,67,0.00,,,0.00,weatherlink.com 1.10,2013-10-25 08:03:00,
2013-10-25 04:18:00,45.5,35.0,30.20,SE,128,0.0,0.0,68,0.00,,,0.00,weatherlink.com 1.10,2013-10-25 08:18:00,
2013-10-25 04:33:00,45.2,35.0,30.20,SE,128,0.0,0.0,68,0.00,,,0.00,weatherlink.com 1.10,2013-10-25 08:33:00,
2013-10-25 04:48:00,45.1,35.0,30.20,SE,128,0.0,0.0,69,0.00,,,0.00,weatherlink.com 1.10,2013-10-25 08:48:00,
2013-10-25 05:03:00,44.6,35.0,30.21,SE,128,0.0,0.0,70,0.00,,,0.00,weatherlink.com 1.10,2013-10-25 09:03:00,
2013-10-25 05:18:00,44.3,35.0,30.21,WNW,284,0.0,2.0,70,0.00,,,0.00,weatherlink.com 1.10,2013-10-25 09:18:00,
2013-10-25 05:33:00,43.9,35.0,30.22,WNW,284,0.0,0.0,72,0.00,,,0.00,weatherlink.com 1.10,2013-10-25 09:33:00,
2013-10-25 05:48:00,43.5,35.0,30.22,WNW,284,0.0,0.0,73,0.00,,,0.00,weatherlink.com 1.10,2013-10-25 09:48:00,
2013-10-25 06:03:00,42.8,35.0,30.23,WNW,284,0.0,0.0,75,0.00,,,0.00,weatherlink.com 1.10,2013-10-25 10:03:00,
2013-10-25 06:18:00,42.1,35.0,30.23,WNW,284,0.0,0.0,77,0.00,,,0.00,weatherlink.com 1.10,2013-10-25 10:18:00,
2013-10-25 06:33:00,41.8,35.0,30.24,WNW,284,0.0,0.0,78,0.00,,,0.00,weatherlink.com 1.10,2013-10-25 10:33:00,
2013-10-25 06:48:00,41.3,35.0,30.25,WNW,284,0.0,0.0,79,0.00,,,0.00,weatherlink.com 1.10,2013-10-25 10:48:00,
2013-10-25 07:03:00,40.9,35.0,30.25,WNW,284,0.0,0.0,79,0.00,,,0.00,weatherlink.com 1.10,2013-10-25 11:03:00,
2013-10-25 07:18:00,40.8,35.0,30.26,WNW,284,0.0,0.0,80,0.00,,,0.00,weatherlink.com 1.10,2013-10-25 11:18:00,
2013-10-25 07:33:00,40.9,35.0,30.26,WNW,284,0.0,0.0,79,0.00,,,0.00,weatherlink.com 1.10,2013-10-25 11:33:00,
2013-10-25 07:48:00,40.9,35.0,30.28,WNW,284,0.0,1.0,78,0.00,,,0.00,weatherlink.com 1.10,2013-10-25 11:48:00,
2013-10-25 08:03:00,41.1,35.0,30.28,WNW,284,0.0,0.0,78,0.00,,,0.00,weatherlink.com 1.10,2013-10-25 12:03:00,
2013-10-25 08:18:00,41.3,34.0,30.28,NE,49,0.0,1.0,76,0.00,,,0.00,weatherlink.com 1.10,2013-10-25 12:18:00,
2013-10-25 08:33:00,41.5,33.0,30.29,ENE,61,0.0,3.0,72,0.00,,,0.00,weatherlink.com 1.10,2013-10-25 12:33:00,
2013-10-25 08:48:00,42.1,33.0,30.30,NE,43,0.0,3.0,71,0.00,,,0.00,weatherlink.com 1.10,2013-10-25 12:48:00,
2013-10-25 09:03:00,43.1,33.0,30.31,ENE,61,1.0,1.0,68,0.00,,,0.00,weatherlink.com 1.10,2013-10-25 13:03:00,
2013-10-25 09:18:00,44.2,33.0,30.31,ENE,59,0.0,4.0,64,0.00,,,0.00,weatherlink.com 1.10,2013-10-25 13:18:00,
2013-10-25 09:33:00,45.1,32.0,30.32,ENE,70,0.0,8.0,61,0.00,,,0.00,weatherlink.com 1.10,2013-10-25 13:33:00,
2013-10-25 09:48:00,45.4,32.0,30.32,North,5,0.0,2.0,60,0.00,,,0.00,weatherlink.com 1.10,2013-10-25 13:48:00,
2013-10-25 10:03:00,46.0,32.0,30.32,WSW,240,0.0,3.0,59,0.00,,,0.00,weatherlink.com 1.10,2013-10-25 14:03:00,
2013-10-25 10:18:00,46.5,32.0,30.33,NNE,32,0.0,7.0,57,0.00,,,0.00,weatherlink.com 1.10,2013-10-25 14:18:00,
2013-10-25 10:33:00,47.7,32.0,30.32,ENE,77,1.0,3.0,55,0.00,,,0.00,weatherlink.com 1.10,2013-10-25 14:33:00,
2013-10-25 10:48:00,47.7,32.0,30.32,ENE,70,0.0,13.0,55,0.00,,,0.00,weatherlink.com 1.10,2013-10-25 14:48:00,
2013-10-25 11:03:00,48.3,32.0,30.32,East,85,2.0,5.0,53,0.00,,,0.00,weatherlink.com 1.10,2013-10-25 15:03:00,
2013-10-25 11:18:00,46.8,32.0,30.33,ESE,103,0.0,5.0,57,0.00,,,0.00,weatherlink.com 1.10,2013-10-25 15:18:00,
2013-10-25 11:33:00,47.1,30.0,30.33,NNE,31,0.0,5.0,52,0.00,,,0.00,weatherlink.com 1.10,2013-10-25 15:33:00,
2013-10-25 11:48:00,47.3,29.0,30.34,NE,40,0.0,7.0,50,0.00,,,0.00,weatherlink.com 1.10,2013-10-25 15:48:00,
2013-10-25 12:03:00,48.9,30.0,30.34,ENE,61,1.0,5.0,49,0.00,,,0.00,weatherlink.com 1.10,2013-10-25 16:03:00,
2013-10-25 12:18:00,49.5,29.0,30.34,WNW,290,1.0,4.0,46,0.00,,,0.00,weatherlink.com 1.10,2013-10-25 16:18:00,
2013-10-25 12:33:00,51.1,31.0,30.34,ENE,69,1.0,4.0,47,0.00,,,0.00,weatherlink.com 1.10,2013-10-25 16:33:00,
2013-10-25 12:48:00,51.0,29.0,30.34,NE,49,1.0,4.0,43,0.00,,,0.00,weatherlink.com 1.10,2013-10-25 16:48:00,
2013-10-25 13:04:00,51.4,30.0,30.33,NW,309,0.0,5.0,44,0.00,,,0.00,weatherlink.com 1.10,2013-10-25 17:04:00,
2013-10-25 13:19:00,52.2,29.0,30.32,SW,231,0.0,4.0,41,0.00,,,0.00,weatherlink.com 1.10,2013-10-25 17:19:00,
2013-10-25 13:34:00,52.3,30.0,30.32,NE,53,2.0,5.0,42,0.00,,,0.00,weatherlink.com 1.10,2013-10-25 17:34:00,
2013-10-25 13:49:00,51.7,28.0,30.32,WNW,298,2.0,3.0,40,0.00,,,0.00,weatherlink.com 1.10,2013-10-25 17:49:00,
2013-10-25 14:04:00,51.6,30.0,30.32,North,360,0.0,7.0,43,0.00,,,0.00,weatherlink.com 1.10,2013-10-25 18:04:00,
2013-10-25 14:19:00,51.7,27.0,30.31,NE,36,0.0,5.0,38,0.00,,,0.00,weatherlink.com 1.10,2013-10-25 18:19:00,
2013-10-25 14:34:00,51.6,28.0,30.31,ENE,69,0.0,3.0,40,0.00,,,0.00,weatherlink.com 1.10,2013-10-25 18:34:00,
2013-10-25 14:49:00,51.6,27.0,30.30,WSW,243,1.0,5.0,39,0.00,,,0.00,weatherlink.com 1.10,2013-10-25 18:49:00,
2013-10-25 15:04:00,52.2,28.0,30.30,ENE,77,0.0,8.0,39,0.00,,,0.00,weatherlink.com 1.10,2013-10-25 19:04:00,
2013-10-25 15:19:00,51.9,29.0,30.29,East,98,0.0,5.0,41,0.00,,,0.00,weatherlink.com 1.10,2013-10-25 19:19:00,
2013-10-25 15:34:00,51.7,27.0,30.29,NW,304,2.0,6.0,39,0.00,,,0.00,weatherlink.com 1.10,2013-10-25 19:34:00,
2013-10-25 15:49:00,51.7,28.0,30.29,ENE,59,0.0,6.0,40,0.00,,,0.00,weatherlink.com 1.10,2013-10-25 19:49:00,
2013-10-25 16:04:00,52.2,30.0,30.29,ENE,64,2.0,3.0,42,0.00,,,0.00,weatherlink.com 1.10,2013-10-25 20:04:00,
2013-10-25 16:19:00,51.7,28.0,30.29,WSW,240,1.0,3.0,41,0.00,,,0.00,weatherlink.com 1.10,2013-10-25 20:19:00,
2013-10-25 16:34:00,51.6,28.0,30.30,SE,126,0.0,2.0,40,0.00,,,0.00,weatherlink.com 1.10,2013-10-25 20:34:00,
2013-10-25 16:49:00,51.3,28.0,30.29,East,100,0.0,2.0,40,0.00,,,0.00,weatherlink.com 1.10,2013-10-25 20:49:00,
2013-10-25 17:04:00,51.1,29.0,30.30,NE,55,0.0,3.0,42,0.00,,,0.00,weatherlink.com 1.10,2013-10-25 21:04:00,
2013-10-25 17:19:00,50.8,28.0,30.30,East,93,0.0,4.0,42,0.00,,,0.00,weatherlink.com 1.10,2013-10-25 21:19:00,
2013-10-25 17:34:00,50.5,27.0,30.30,North,360,0.0,3.0,41,0.00,,,0.00,weatherlink.com 1.10,2013-10-25 21:34:00,
2013-10-25 17:49:00,49.9,28.0,30.31,ENE,76,0.0,2.0,43,0.00,,,0.00,weatherlink.com 1.10,2013-10-25 21:49:00,
2013-10-25 18:04:00,49.5,29.0,30.31,NE,49,0.0,2.0,46,0.00,,,0.00,weatherlink.com 1.10,2013-10-25 22:04:00,
2013-10-25 18:19:00,48.9,30.0,30.31,West,269,0.0,0.0,49,0.00,,,0.00,weatherlink.com 1.10,2013-10-25 22:19:00,
2013-10-25 18:34:00,48.0,30.0,30.31,West,269,0.0,0.0,51,0.00,,,0.00,weatherlink.com 1.10,2013-10-25 22:34:00,
2013-10-25 18:49:00,46.8,31.0,30.31,West,270,0.0,0.0,55,0.00,,,0.00,weatherlink.com 1.10,2013-10-25 22:49:00,
2013-10-25 19:04:00,45.7,31.0,30.31,West,270,0.0,0.0,57,0.00,,,0.00,weatherlink.com 1.10,2013-10-25 23:04:00,
2013-10-25 19:19:00,44.5,32.0,30.32,West,270,0.0,0.0,62,0.00,,,0.00,weatherlink.com 1.10,2013-10-25 23:19:00,
2013-10-25 19:34:00,43.5,32.0,30.32,West,270,0.0,0.0,65,0.00,,,0.00,weatherlink.com 1.10,2013-10-25 23:34:00,
2013-10-25 19:49:00,42.5,33.0,30.33,West,270,0.0,0.0,68,0.00,,,0.00,weatherlink.com 1.10,2013-10-25 23:49:00,
2013-10-25 20:04:00,41.9,33.0,30.33,West,270,0.0,0.0,70,0.00,,,0.00,weatherlink.com 1.10,2013-10-26 00:04:00,
2013-10-25 20:19:00,41.2,32.0,30.34,West,270,0.0,0.0,71,0.00,,,0.00,weatherlink.com 1.10,2013-10-26 00:19:00,
2013-10-25 20:34:00,40.6,33.0,30.34,West,270,0.0,0.0,74,0.00,,,0.00,weatherlink.com 1.10,2013-10-26 00:34:00,
2013-10-25 20:49:00,40.1,33.0,30.34,West,270,0.0,0.0,75,0.00,,,0.00,weatherlink.com 1.10,2013-10-26 00:49:00,
2013-10-25 21:04:00,39.5,33.0,30.35,West,270,0.0,0.0,77,0.00,,,0.00,weatherlink.com 1.10,2013-10-26 01:04:00,
2013-10-25 21:19:00,39.2,33.0,30.34,West,270,0.0,0.0,78,0.00,,,0.00,weatherlink.com 1.10,2013-10-26 01:19:00,
2013-10-25 21:34:00,39.6,31.0,30.35,West,270,0.0,0.0,71,0.00,,,0.00,weatherlink.com 1.10,2013-10-26 01:34:00,
2013-10-25 21:49:00,40.3,30.0,30.35,ENE,78,0.0,1.0,67,0.00,,,0.00,weatherlink.com 1.10,2013-10-26 01:49:00,
2013-10-25 22:04:00,40.6,30.0,30.36,ENE,70,0.0,0.0,66,0.00,,,0.00,weatherlink.com 1.10,2013-10-26 02:04:00,
2013-10-25 22:19:00,40.1,29.0,30.36,ENE,69,0.0,1.0,66,0.00,,,0.00,weatherlink.com 1.10,2013-10-26 02:19:00,
2013-10-25 22:34:00,39.5,30.0,30.36,ENE,69,0.0,0.0,68,0.00,,,0.00,weatherlink.com 1.10,2013-10-26 02:34:00,
2013-10-25 22:49:00,39.3,30.0,30.37,ENE,69,0.0,0.0,69,0.00,,,0.00,weatherlink.com 1.10,2013-10-26 02:49:00,
2013-10-25 23:04:00,38.8,30.0,30.37,ENE,69,0.0,0.0,70,0.00,,,0.00,weatherlink.com 1.10,2013-10-26 03:04:00,
2013-10-25 23:19:00,38.3,30.0,30.38,ENE,69,0.0,0.0,71,0.00,,,0.00,weatherlink.com 1.10,2013-10-26 03:19:00,
2013-10-25 23:34:00,37.8,30.0,30.37,ENE,69,0.0,0.0,72,0.00,,,0.00,weatherlink.com 1.10,2013-10-26 03:34:00,
2013-10-25 23:49:00,37.3,29.0,30.37,ENE,69,0.0,0.0,73,0.00,,,0.00,weatherlink.com 1.10,2013-10-26 03:49:00,